Location: Bailey Inglish Elementary School
(33.5826°N, 96.1780°W)
Time: 00:40:16
(UTC+00:00)

BlueWalker 3 - Pass Details

Date: 24 June 2024
Orbit: 480 x 491 km, 53.2° (Epoch: 20 July)

Event Time Altitude Azimuth Distance (km) Brightness Sun altitude
Rises 08:30:30 0° 320° (NW) 2,535 5.7 -25.9°
Reaches altitude 10° 08:32:42 10° 325° (NW) 1,654 4.8 -25.7°
Enters shadow 08:34:40 28° 338° (NNW) 930 3.5 -25.5°
